Time,TemperatureF,DewpointF,PressureIn,WindDirection,WindDirectionDegrees,WindSpeedMPH,WindSpeedGustMPH,Humidity,HourlyPrecipIn,Conditions,Clouds,dailyrainin,SolarRadiationWatts/m^2,SoftwareType,DateUTC
2013-08-24 00:04:00,55.0,53.0,-100.00,ESE,104,0.0,0.0,92,0.00,,,0.00,0.000000,,2013-08-24 04:04:00,
2013-08-24 00:44:00,52.0,51.0,-100.00,East,79,0.0,0.0,96,0.00,,,0.00,0.000000,,2013-08-24 04:44:00,
2013-08-24 00:54:00,52.0,51.0,-100.00,East,79,0.0,0.0,96,0.00,,,0.00,0.000000,,2013-08-24 04:54:00,
2013-08-24 01:03:00,52.0,51.0,-100.00,East,79,0.0,0.0,96,0.00,,,0.00,0.000000,,2013-08-24 05:03:00,
2013-08-24 01:43:00,51.0,50.0,-100.00,ESE,105,0.0,0.0,97,0.00,,,0.00,0.000000,,2013-08-24 05:43:00,
2013-08-24 01:53:00,51.0,50.0,-100.00,ESE,105,0.0,0.0,97,0.00,,,0.00,0.000000,,2013-08-24 05:53:00,
2013-08-24 02:02:00,51.0,50.0,-100.00,ESE,105,0.0,0.0,97,0.00,,,0.00,0.000000,,2013-08-24 06:02:00,
2013-08-24 02:42:00,51.0,50.0,-100.00,East,87,0.0,0.0,97,0.00,,,0.00,0.000000,,2013-08-24 06:42:00,
2013-08-24 02:52:00,51.0,50.0,-100.00,East,87,0.0,0.0,97,0.00,,,0.00,0.000000,,2013-08-24 06:52:00,
2013-08-24 03:02:00,51.0,50.0,-100.00,East,87,0.0,0.0,97,0.00,,,0.00,0.000000,,2013-08-24 07:02:00,
2013-08-24 03:43:00,51.0,50.0,-100.00,East,79,2.0,2.0,98,0.00,,,0.00,0.000000,,2013-08-24 07:43:00,
2013-08-24 03:53:00,51.0,50.0,-100.00,East,79,2.0,2.0,98,0.00,,,0.00,0.000000,,2013-08-24 07:53:00,
2013-08-24 04:02:00,51.0,50.0,-100.00,East,79,2.0,2.0,98,0.00,,,0.00,0.000000,,2013-08-24 08:02:00,
2013-08-24 04:42:00,49.0,48.0,-100.00,East,82,1.0,2.0,98,0.00,,,0.00,0.000000,,2013-08-24 08:42:00,
2013-08-24 04:52:00,49.0,48.0,-100.00,East,82,1.0,2.0,98,0.00,,,0.00,0.000000,,2013-08-24 08:52:00,
2013-08-24 05:01:00,49.0,48.0,-100.00,East,82,1.0,2.0,98,0.00,,,0.00,0.000000,,2013-08-24 09:01:00,
2013-08-24 05:44:00,50.0,49.0,-100.00,ENE,78,2.0,2.0,98,0.00,,,0.00,0.000000,,2013-08-24 09:44:00,
2013-08-24 05:53:00,50.0,49.0,-100.00,ENE,78,2.0,2.0,98,0.00,,,0.00,0.000000,,2013-08-24 09:53:00,
2013-08-24 06:04:00,50.0,49.0,-100.00,ENE,78,2.0,2.0,98,0.00,,,0.00,0.000000,,2013-08-24 10:04:00,
2013-08-24 06:42:00,48.0,47.0,-100.00,ENE,78,2.0,3.0,98,0.00,,,0.00,0.000000,,2013-08-24 10:42:00,
2013-08-24 06:53:00,48.0,47.0,-100.00,ENE,78,2.0,3.0,98,0.00,,,0.00,0.000000,,2013-08-24 10:53:00,
2013-08-24 07:02:00,48.0,47.0,-100.00,ENE,78,2.0,3.0,98,0.00,,,0.00,0.000000,,2013-08-24 11:02:00,
2013-08-24 07:42:00,48.0,47.0,-100.00,ENE,72,2.0,4.0,98,0.00,,,0.00,8.000000,,2013-08-24 11:42:00,
2013-08-24 07:52:00,48.0,47.0,-100.00,ENE,72,2.0,4.0,98,0.00,,,0.00,8.000000,,2013-08-24 11:52:00,
2013-08-24 08:02:00,48.0,47.0,-100.00,ENE,72,2.0,4.0,98,0.00,,,0.00,8.000000,,2013-08-24 12:02:00,
2013-08-24 08:42:00,55.0,52.0,-100.00,East,81,2.0,3.0,90,0.00,,,0.00,137.000000,,2013-08-24 12:42:00,
2013-08-24 08:52:00,55.0,52.0,-100.00,East,81,2.0,3.0,90,0.00,,,0.00,137.000000,,2013-08-24 12:52:00,
2013-08-24 09:02:00,55.0,52.0,-100.00,East,81,2.0,3.0,90,0.00,,,0.00,137.000000,,2013-08-24 13:02:00,
2013-08-24 09:42:00,60.0,54.0,-100.00,East,82,4.0,7.0,80,0.00,,,0.00,363.000000,,2013-08-24 13:42:00,
2013-08-24 09:52:00,60.0,54.0,-100.00,East,82,4.0,7.0,80,0.00,,,0.00,363.000000,,2013-08-24 13:52:00,
2013-08-24 10:02:00,60.0,54.0,-100.00,East,82,4.0,7.0,80,0.00,,,0.00,363.000000,,2013-08-24 14:02:00,
2013-08-24 10:42:00,66.0,53.0,-100.00,East,83,5.0,7.0,62,0.00,,,0.00,584.000000,,2013-08-24 14:42:00,
2013-08-24 10:52:00,66.0,53.0,-100.00,East,83,5.0,7.0,62,0.00,,,0.00,584.000000,,2013-08-24 14:52:00,
2013-08-24 11:01:00,66.0,53.0,-100.00,East,83,5.0,7.0,62,0.00,,,0.00,584.000000,,2013-08-24 15:01:00,
2013-08-24 11:45:00,70.0,52.0,-100.00,ESE,102,4.0,8.0,53,0.00,,,0.00,740.000000,,2013-08-24 15:45:00,
2013-08-24 11:54:00,70.0,52.0,-100.00,ESE,102,4.0,8.0,53,0.00,,,0.00,740.000000,,2013-08-24 15:54:00,
2013-08-24 12:04:00,70.0,52.0,-100.00,ESE,102,4.0,8.0,53,0.00,,,0.00,740.000000,,2013-08-24 16:04:00,
2013-08-24 12:42:00,73.0,50.0,-100.00,East,88,4.0,5.0,45,0.00,,,0.00,902.000000,,2013-08-24 16:42:00,
2013-08-24 12:53:00,73.0,50.0,-100.00,East,88,4.0,5.0,45,0.00,,,0.00,902.000000,,2013-08-24 16:53:00,
2013-08-24 13:02:00,73.0,50.0,-100.00,East,88,4.0,5.0,45,0.00,,,0.00,902.000000,,2013-08-24 17:02:00,
2013-08-24 13:42:00,75.0,45.0,-100.00,NE,40,3.0,6.0,35,0.00,,,0.00,997.000000,,2013-08-24 17:42:00,
2013-08-24 13:52:00,75.0,45.0,-100.00,NE,40,3.0,6.0,35,0.00,,,0.00,997.000000,,2013-08-24 17:52:00,
2013-08-24 14:03:00,75.0,45.0,-100.00,NE,40,3.0,6.0,35,0.00,,,0.00,997.000000,,2013-08-24 18:03:00,
2013-08-24 14:42:00,78.0,48.0,-100.00,NNE,23,4.0,5.0,35,0.00,,,0.00,1031.000000,,2013-08-24 18:42:00,
2013-08-24 14:53:00,78.0,48.0,-100.00,NNE,23,4.0,5.0,35,0.00,,,0.00,1031.000000,,2013-08-24 18:53:00,
2013-08-24 15:01:00,78.0,48.0,-100.00,NNE,23,4.0,5.0,35,0.00,,,0.00,1031.000000,,2013-08-24 19:01:00,
2013-08-24 15:42:00,79.0,47.0,-100.00,NNW,336,2.0,5.0,32,0.00,,,0.00,985.000000,,2013-08-24 19:42:00,
2013-08-24 15:52:00,79.0,47.0,-100.00,NNW,336,2.0,5.0,32,0.00,,,0.00,985.000000,,2013-08-24 19:52:00,
2013-08-24 16:02:00,79.0,47.0,-100.00,NNW,336,2.0,5.0,32,0.00,,,0.00,985.000000,,2013-08-24 20:02:00,
2013-08-24 16:42:00,80.0,47.0,-100.00,NNW,337,3.0,5.0,31,0.00,,,0.00,872.000000,,2013-08-24 20:42:00,
2013-08-24 16:53:00,80.0,47.0,-100.00,NNW,337,3.0,5.0,31,0.00,,,0.00,872.000000,,2013-08-24 20:53:00,
2013-08-24 17:02:00,80.0,47.0,-100.00,NNW,337,3.0,5.0,31,0.00,,,0.00,872.000000,,2013-08-24 21:02:00,
2013-08-24 17:43:00,80.0,47.0,-100.00,WNW,293,3.0,4.0,32,0.00,,,0.00,710.000000,,2013-08-24 21:43:00,
2013-08-24 17:55:00,80.0,47.0,-100.00,WNW,293,3.0,4.0,32,0.00,,,0.00,710.000000,,2013-08-24 21:55:00,
2013-08-24 18:04:00,80.0,47.0,-100.00,WNW,293,3.0,4.0,32,0.00,,,0.00,710.000000,,2013-08-24 22:04:00,
2013-08-24 18:43:00,79.0,45.0,-100.00,SE,142,3.0,4.0,30,0.00,,,0.00,502.000000,,2013-08-24 22:43:00,
2013-08-24 18:53:00,79.0,45.0,-100.00,SE,142,3.0,4.0,30,0.00,,,0.00,502.000000,,2013-08-24 22:53:00,
2013-08-24 19:03:00,79.0,45.0,-100.00,SE,142,3.0,4.0,30,0.00,,,0.00,502.000000,,2013-08-24 23:03:00,
2013-08-24 19:43:00,74.0,52.0,-100.00,SE,136,1.0,1.0,46,0.00,,,0.00,260.000000,,2013-08-24 23:43:00,
2013-08-24 19:53:00,74.0,52.0,-100.00,SE,136,1.0,1.0,46,0.00,,,0.00,260.000000,,2013-08-24 23:53:00,
2013-08-24 20:02:00,74.0,52.0,-100.00,SE,136,1.0,1.0,46,0.00,,,0.00,260.000000,,2013-08-25 00:02:00,
2013-08-24 23:54:00,52.0,51.0,-100.00,ESE,109,0.0,0.0,95,-99.99,,,0.00,0.000000,,2013-08-25 03:54:00,